,,,PA_Meas_PMT16A,,PR_Meas_QMR101_102,,RH_Meas_QMH101,,SR_Meas_QMS101,,TA_Meas_QMH101,,GenWind,,GenWind,
date,time,status,PA,status,PR,status,RH,status,SR,status,TA,status,DirAvg,status,SpdAvg,
2009-07-14, 00:00:04,VALID,1003.17,VALID,0,VALID,92.8511,VALID,0,VALID,25.1442,VALID,69,VALID,0.0394531,
2009-07-14, 00:01:04,VALID,1003.19,VALID,0,VALID,92.935,VALID,0,VALID,25.1442,VALID,69,VALID,0,
2009-07-14, 00:02:04,VALID,1003.16,VALID,0,VALID,92.9732,VALID,0,VALID,25.1637,VALID,69,VALID,0,
2009-07-14, 00:03:04,VALID,1003.15,VALID,0,VALID,93.0266,VALID,0,VALID,25.1637,VALID,69,VALID,0,
2009-07-14, 00:04:04,VALID,1003.14,VALID,0,VALID,93.0266,VALID,0,VALID,25.1442,VALID,69,VALID,0,
2009-07-14, 00:05:04,VALID,1003.12,VALID,0,VALID,93.0723,VALID,0,VALID,25.1248,VALID,69,VALID,0,
2009-07-14, 00:06:04,VALID,1003.11,VALID,0,VALID,93.1563,VALID,0,VALID,25.1248,VALID,69,VALID,0,
2009-07-14, 00:07:04,VALID,1003.1,VALID,0,VALID,93.2097,VALID,0,VALID,25.1248,VALID,69,VALID,0,
2009-07-14, 00:08:04,VALID,1003.11,VALID,0,VALID,93.3165,VALID,0,VALID,25.1461,VALID,69,VALID,0,
2009-07-14, 00:09:04,VALID,1003.08,VALID,0,VALID,93.3165,VALID,0,VALID,25.1053,VALID,69,VALID,0,
2009-07-14, 00:10:04,VALID,1003.08,VALID,0,VALID,93.3165,VALID,0,VALID,25.1267,VALID,69,VALID,0,
2009-07-14, 00:11:04,VALID,1003.07,VALID,0,VALID,93.3699,VALID,0,VALID,25.0858,VALID,69,VALID,0,
2009-07-14, 00:12:04,VALID,1003.08,VALID,0,VALID,93.4462,VALID,0,VALID,25.0858,VALID,68,VALID,0,
2009-07-14, 00:13:04,VALID,1003.08,VALID,0,VALID,93.5148,VALID,0,VALID,25.0839,VALID,65,VALID,0,
2009-07-14, 00:14:04,VALID,1003.06,VALID,0,VALID,93.5148,VALID,0,VALID,25.0858,VALID,64,VALID,0,
2009-07-14, 00:15:04,VALID,1003.05,VALID,0,VALID,93.5224,VALID,0,VALID,25.0644,VALID,64,VALID,0,
2009-07-14, 00:16:04,VALID,1003.03,VALID,0,VALID,93.5682,VALID,0.100563,VALID,25.0663,VALID,62,VALID,0,
2009-07-14, 00:17:04,VALID,1002.99,VALID,0,VALID,93.5987,VALID,0,VALID,25.045,VALID,62,VALID,0,
2009-07-14, 00:18:04,VALID,1003.02,VALID,0,VALID,93.6445,VALID,0,VALID,25.0469,VALID,53,VALID,0,
2009-07-14, 00:19:04,VALID,1003,VALID,0,VALID,93.6903,VALID,0.100563,VALID,25.006,VALID,48,VALID,0,
2009-07-14, 00:20:04,VALID,1002.96,VALID,0,VALID,93.7284,VALID,0.100563,VALID,25.0469,VALID,25,VALID,0.433984,
2009-07-14, 00:21:04,VALID,1003.01,VALID,0,VALID,93.7666,VALID,0,VALID,24.9866,VALID,25,VALID,0.374609,
2009-07-14, 00:22:04,VALID,1002.98,VALID,0,VALID,93.7895,VALID,0,VALID,25.006,VALID,25,VALID,0.236719,
2009-07-14, 00:23:04,VALID,1002.99,VALID,0,VALID,93.8276,VALID,0,VALID,25.006,VALID,25,VALID,0.186328,
2009-07-14, 00:24:04,VALID,1002.99,VALID,0,VALID,93.8581,VALID,0,VALID,24.9866,VALID,25,VALID,0.0210938,
2009-07-14, 00:25:04,VALID,1002.99,VALID,0,VALID,93.8505,VALID,0,VALID,24.9885,VALID,25,VALID,0,
2009-07-14, 00:26:04,VALID,1002.99,VALID,0,VALID,93.8963,VALID,0,VALID,24.9671,VALID,25,VALID,0,
2009-07-14, 00:27:04,VALID,1002.98,VALID,0,VALID,93.9039,VALID,0,VALID,24.9495,VALID,25,VALID,0,
2009-07-14, 00:28:04,VALID,1002.98,VALID,0,VALID,93.9191,VALID,0.100563,VALID,24.9457,VALID,25,VALID,0,
2009-07-14, 00:29:04,VALID,1002.92,VALID,0,VALID,93.9115,VALID,0,VALID,24.9476,VALID,25,VALID,0.0511719,
2009-07-14, 00:30:04,VALID,1002.93,VALID,0,VALID,93.9344,VALID,0,VALID,24.9495,VALID,25,VALID,0,
2009-07-14, 00:31:04,VALID,1002.91,VALID,0,VALID,93.942,VALID,0,VALID,24.9282,VALID,25,VALID,0.157813,
2009-07-14, 00:32:04,VALID,1002.9,VALID,0,VALID,93.942,VALID,0,VALID,24.93,VALID,25,VALID,0.154687,
2009-07-14, 00:33:04,VALID,1002.9,VALID,0,VALID,93.942,VALID,0,VALID,24.93,VALID,25,VALID,0,
2009-07-14, 00:34:04,VALID,1002.89,VALID,0,VALID,93.9497,VALID,0,VALID,24.9106,VALID,25,VALID,0.223828,
2009-07-14, 00:35:04,VALID,1002.86,VALID,0,VALID,93.9497,VALID,0,VALID,24.8892,VALID,25,VALID,0.124609,
2009-07-14, 00:36:04,VALID,1002.86,VALID,0,VALID,93.9344,VALID,0,VALID,24.8911,VALID,25,VALID,0.106641,
2009-07-14, 00:37:04,VALID,1002.87,VALID,0,VALID,93.942,VALID,0,VALID,24.9106,VALID,25,VALID,0.278516,
2009-07-14, 00:38:04,VALID,1002.82,VALID,0,VALID,93.9497,VALID,0,VALID,24.8892,VALID,25,VALID,0.389062,
2009-07-14, 00:39:04,VALID,1002.81,VALID,0,VALID,93.9344,VALID,0,VALID,24.8503,VALID,25,VALID,0.398047,
2009-07-14, 00:40:04,VALID,1002.79,VALID,0,VALID,93.9573,VALID,0.100563,VALID,24.8716,VALID,25,VALID,0.361719,
2009-07-14, 00:41:04,VALID,1002.78,VALID,0,VALID,93.9649,VALID,0.100563,VALID,24.8522,VALID,25,VALID,0.244141,
2009-07-14, 00:42:04,VALID,1002.78,VALID,0,VALID,93.9497,VALID,0,VALID,24.8113,VALID,25,VALID,0.0105469,
2009-07-14, 00:43:04,VALID,1002.77,VALID,0,VALID,94.0031,VALID,0.100563,VALID,24.8113,VALID,25,VALID,0,
2009-07-14, 00:44:04,VALID,1002.75,VALID,0,VALID,94.0259,VALID,0.100563,VALID,24.8113,VALID,25,VALID,0,
2009-07-14, 00:45:04,VALID,1002.71,VALID,0,VALID,94.0641,VALID,0.100563,VALID,24.8113,VALID,25,VALID,0,
2009-07-14, 00:46:04,VALID,1002.69,VALID,0,VALID,94.0412,VALID,0,VALID,24.8113,VALID,25,VALID,0,
2009-07-14, 00:47:04,VALID,1002.68,VALID,0,VALID,94.0641,VALID,0,VALID,24.7919,VALID,25,VALID,0,
2009-07-14, 00:48:04,VALID,1002.66,VALID,0,VALID,94.0794,VALID,0,VALID,24.8132,VALID,25,VALID,0,
2009-07-14, 00:49:04,VALID,1002.64,VALID,0,VALID,94.0794,VALID,0,VALID,24.7724,VALID,25,VALID,0,
2009-07-14, 00:50:04,VALID,1002.65,VALID,0,VALID,94.0794,VALID,0,VALID,24.7724,VALID,25,VALID,0,
2009-07-14, 00:51:04,VALID,1002.66,VALID,0,VALID,94.0946,VALID,0,VALID,24.7529,VALID,25,VALID,0,
2009-07-14, 00:52:04,VALID,1002.64,VALID,0,VALID,94.087,VALID,0.100563,VALID,24.7335,VALID,25,VALID,0.2625,
2009-07-14, 00:53:04,VALID,1002.68,VALID,0,VALID,94.087,VALID,0,VALID,24.714,VALID,25,VALID,0.00195313,
2009-07-14, 00:54:04,VALID,1002.65,VALID,0,VALID,94.1022,VALID,0.100563,VALID,24.714,VALID,25,VALID,0.0445312,
2009-07-14, 00:55:04,VALID,1002.68,VALID,0,VALID,94.1099,VALID,0,VALID,24.6945,VALID,25,VALID,0.084375,
2009-07-14, 00:56:04,VALID,1002.69,VALID,0,VALID,94.1099,VALID,0,VALID,24.6945,VALID,25,VALID,0,
2009-07-14, 00:57:04,VALID,1002.71,VALID,0,VALID,94.1175,VALID,0,VALID,24.6964,VALID,25,VALID,0.264062,
2009-07-14, 00:58:04,VALID,1002.7,VALID,0,VALID,94.1251,VALID,0,VALID,24.6964,VALID,25,VALID,0.102734,
2009-07-14, 00:59:04,VALID,1002.74,VALID,0,VALID,94.1175,VALID,0,VALID,24.6556,VALID,25,VALID,0.00078125,
2009-07-14, 01:00:04,VALID,1002.74,VALID,0,VALID,94.1251,VALID,0,VALID,24.6556,VALID,25,VALID,0,
2009-07-14, 01:01:04,VALID,1002.77,VALID,0,VALID,94.1328,VALID,0,VALID,24.6148,VALID,25,VALID,0.310156,
2009-07-14, 01:02:04,VALID,1002.77,VALID,0,VALID,94.1404,VALID,0,VALID,24.638,VALID,25,VALID,0,
2009-07-14, 01:03:04,VALID,1002.81,VALID,0,VALID,94.1709,VALID,0,VALID,24.6574,VALID,25,VALID,0,
2009-07-14, 01:04:04,VALID,1002.81,VALID,0,VALID,94.1938,VALID,0,VALID,24.6361,VALID,25,VALID,0,
2009-07-14, 01:05:04,VALID,1002.81,VALID,0,VALID,94.1938,VALID,0,VALID,24.638,VALID,25,VALID,0,
2009-07-14, 01:06:04,VALID,1002.82,VALID,0,VALID,94.1938,VALID,0,VALID,24.6166,VALID,25,VALID,0,
2009-07-14, 01:07:04,VALID,1002.82,VALID,0,VALID,94.2243,VALID,0.100563,VALID,24.5972,VALID,25,VALID,0,
2009-07-14, 01:08:04,VALID,1002.88,VALID,0,VALID,94.209,VALID,0,VALID,24.6185,VALID,25,VALID,0,
2009-07-14, 01:09:04,VALID,1002.81,VALID,0,VALID,94.2243,VALID,0,VALID,24.5972,VALID,25,VALID,0,
2009-07-14, 01:10:04,VALID,1002.84,VALID,0,VALID,94.2319,VALID,0,VALID,24.5777,VALID,25,VALID,0,
2009-07-14, 01:11:04,VALID,1002.83,VALID,0,VALID,94.2472,VALID,0,VALID,24.599,VALID,25,VALID,0.336719,
2009-07-14, 01:12:04,VALID,1002.83,VALID,0,VALID,94.2701,VALID,0.100563,VALID,24.5777,VALID,25,VALID,0.367578,
2009-07-14, 01:13:04,VALID,1002.81,VALID,0,VALID,94.2624,VALID,0.100563,VALID,24.5582,VALID,25,VALID,0.45625,
2009-07-14, 01:14:04,VALID,1002.8,VALID,0,VALID,94.2777,VALID,0,VALID,24.5796,VALID,25,VALID,0.380859,
2009-07-14, 01:15:04,VALID,1002.79,VALID,0,VALID,94.2777,VALID,0.100563,VALID,24.5796,VALID,25,VALID,0.138281,
2009-07-14, 01:16:04,VALID,1002.8,VALID,0,VALID,94.2853,VALID,0,VALID,24.5582,VALID,25,VALID,0.321875,
2009-07-14, 01:17:04,VALID,1002.78,VALID,0,VALID,94.3006,VALID,0.100563,VALID,24.5582,VALID,25,VALID,0.00585938,
2009-07-14, 01:18:04,VALID,1002.78,VALID,0,VALID,94.3387,VALID,0,VALID,24.5582,VALID,25,VALID,0,
2009-07-14, 01:19:04,VALID,1002.75,VALID,0,VALID,94.3387,VALID,0,VALID,24.5582,VALID,25,VALID,0,
2009-07-14, 01:20:04,VALID,1002.73,VALID,0,VALID,94.3387,VALID,0.100563,VALID,24.5582,VALID,25,VALID,0,
2009-07-14, 01:21:04,VALID,1002.68,VALID,0,VALID,94.3616,VALID,0.100563,VALID,24.5796,VALID,25,VALID,0,
2009-07-14, 01:22:04,VALID,1002.64,VALID,0,VALID,94.3387,VALID,0,VALID,24.5388,VALID,25,VALID,0,
2009-07-14, 01:23:04,VALID,1002.61,VALID,0,VALID,94.3387,VALID,0,VALID,24.5582,VALID,25,VALID,0,
2009-07-14, 01:24:04,VALID,1002.61,VALID,0,VALID,94.3692,VALID,0.100563,VALID,24.5388,VALID,25,VALID,0,
2009-07-14, 01:25:04,VALID,1002.62,VALID,0,VALID,94.3616,VALID,0,VALID,24.5601,VALID,25,VALID,0,
2009-07-14, 01:26:04,VALID,1002.63,VALID,0,VALID,94.3769,VALID,0,VALID,24.5388,VALID,25,VALID,0,
2009-07-14, 01:27:04,VALID,1002.65,VALID,0,VALID,94.3845,VALID,0,VALID,24.5406,VALID,25,VALID,0,
2009-07-14, 01:28:04,VALID,1002.66,VALID,0,VALID,94.3769,VALID,0,VALID,24.562,VALID,25,VALID,0,
2009-07-14, 01:29:04,VALID,1002.65,VALID,0,VALID,94.3921,VALID,0,VALID,24.5212,VALID,25,VALID,0,
2009-07-14, 01:30:04,VALID,1002.64,VALID,0,VALID,94.3845,VALID,0,VALID,24.5425,VALID,25,VALID,0,
2009-07-14, 01:31:04,VALID,1002.65,VALID,0,VALID,94.3921,VALID,0,VALID,24.5017,VALID,25,VALID,0,
2009-07-14, 01:32:04,VALID,1002.67,VALID,0,VALID,94.3616,VALID,0,VALID,24.4822,VALID,25,VALID,0,
2009-07-14, 01:33:04,VALID,1002.66,VALID,0,VALID,94.3921,VALID,0,VALID,24.5017,VALID,25,VALID,0,
2009-07-14, 01:34:04,VALID,1002.67,VALID,0,VALID,94.3921,VALID,0,VALID,24.5017,VALID,25,VALID,0,
2009-07-14, 01:35:04,VALID,1002.64,VALID,0,VALID,94.4227,VALID,0,VALID,24.5017,VALID,25,VALID,0.00429688,
2009-07-14, 01:36:04,VALID,1002.67,VALID,0,VALID,94.4303,VALID,0,VALID,24.5017,VALID,25,VALID,0,
2009-07-14, 01:37:04,VALID,1002.64,VALID,0,VALID,94.4455,VALID,0,VALID,24.5017,VALID,25,VALID,0,
2009-07-14, 01:38:04,VALID,1002.63,VALID,0,VALID,94.4455,VALID,0,VALID,24.5017,VALID,25,VALID,0.101953,
2009-07-14, 01:39:04,VALID,1002.64,VALID,0,VALID,94.4303,VALID,0,VALID,24.5035,VALID,25,VALID,0.149609,
2009-07-14, 01:40:04,VALID,1002.64,VALID,0,VALID,94.4455,VALID,0,VALID,24.4822,VALID,25,VALID,0.0148437,
2009-07-14, 01:41:04,VALID,1002.66,VALID,0,VALID,94.4455,VALID,0,VALID,24.4628,VALID,25,VALID,0,
2009-07-14, 01:42:04,VALID,1002.69,VALID,0,VALID,94.4455,VALID,0,VALID,24.4822,VALID,25,VALID,0.1125,
2009-07-14, 01:43:04,VALID,1002.67,VALID,0,VALID,94.4532,VALID,0,VALID,24.4804,VALID,25,VALID,0.0628906,
2009-07-14, 01:44:04,VALID,1002.7,VALID,0,VALID,94.4684,VALID,0,VALID,24.4804,VALID,25,VALID,0.0390625,
2009-07-14, 01:45:04,VALID,1002.73,VALID,0,VALID,94.4684,VALID,0,VALID,24.4804,VALID,26,VALID,0.349609,
2009-07-14, 01:46:04,VALID,1002.71,VALID,0,VALID,94.4913,VALID,0.100563,VALID,24.5017,VALID,54,VALID,0.215234,
2009-07-14, 01:47:04,VALID,1002.71,VALID,0,VALID,94.4761,VALID,0,VALID,24.5212,VALID,54,VALID,0.194531,
2009-07-14, 01:48:04,VALID,1002.72,VALID,0,VALID,94.4989,VALID,0,VALID,24.4822,VALID,54,VALID,0.4125,
2009-07-14, 01:49:04,VALID,1002.75,VALID,0,VALID,94.4761,VALID,0,VALID,24.4609,VALID,54,VALID,0.335547,
2009-07-14, 01:50:04,VALID,1002.74,VALID,0,VALID,94.5142,VALID,0.100563,VALID,24.4804,VALID,54,VALID,0.251172,
2009-07-14, 01:51:04,VALID,1002.74,VALID,0,VALID,94.4989,VALID,0,VALID,24.4804,VALID,54,VALID,0.371875,
2009-07-14, 01:52:04,VALID,1002.75,VALID,0,VALID,94.5142,VALID,0,VALID,24.5017,VALID,54,VALID,0.275391,
2009-07-14, 01:53:04,VALID,1002.73,VALID,0,VALID,94.5066,VALID,0,VALID,24.4998,VALID,54,VALID,0.237109,
2009-07-14, 01:54:04,VALID,1002.74,VALID,0,VALID,94.5218,VALID,0,VALID,24.4998,VALID,54,VALID,0,
2009-07-14, 01:55:04,VALID,1002.74,VALID,0,VALID,94.5218,VALID,0.100563,VALID,24.5193,VALID,54,VALID,0,
2009-07-14, 01:56:04,VALID,1002.79,VALID,0,VALID,94.5218,VALID,0,VALID,24.5193,VALID,54,VALID,0,
2009-07-14, 01:57:04,VALID,1002.79,VALID,0,VALID,94.5066,VALID,0.100563,VALID,24.5388,VALID,54,VALID,0,
2009-07-14, 01:58:04,VALID,1002.77,VALID,0,VALID,94.5295,VALID,0,VALID,24.5388,VALID,54,VALID,0,
2009-07-14, 01:59:04,VALID,1002.79,VALID,0,VALID,94.5066,VALID,0.100563,VALID,24.5582,VALID,54,VALID,0.0644531,
2009-07-14, 02:00:04,VALID,1002.79,VALID,0,VALID,94.5371,VALID,0.100563,VALID,24.5582,VALID,54,VALID,0.0183594,
2009-07-14, 02:01:04,VALID,1002.76,VALID,0,VALID,94.5295,VALID,0,VALID,24.5777,VALID,54,VALID,0,
2009-07-14, 02:02:04,VALID,1002.78,VALID,0,VALID,94.5371,VALID,0,VALID,24.599,VALID,54,VALID,0,
2009-07-14, 02:03:04,VALID,1002.8,VALID,0,VALID,94.5066,VALID,0,VALID,24.5777,VALID,54,VALID,0,
2009-07-14, 02:04:04,VALID,1002.79,VALID,0,VALID,94.5142,VALID,0.100563,VALID,24.5564,VALID,54,VALID,0.179297,
2009-07-14, 02:05:04,VALID,1002.74,VALID,0,VALID,94.5066,VALID,0,VALID,24.5777,VALID,54,VALID,0.119922,
2009-07-14, 02:06:04,VALID,1002.77,VALID,0,VALID,94.4989,VALID,0.100563,VALID,24.5777,VALID,54,VALID,0.313281,
2009-07-14, 02:07:04,VALID,1002.77,VALID,0,VALID,94.4989,VALID,0,VALID,24.5777,VALID,54,VALID,0.217187,
2009-07-14, 02:08:04,VALID,1002.77,VALID,0,VALID,94.4684,VALID,0,VALID,24.5796,VALID,54,VALID,0.0414063,
2009-07-14, 02:09:04,VALID,1002.78,VALID,0,VALID,94.4684,VALID,0,VALID,24.5388,VALID,54,VALID,0.189453,
2009-07-14, 02:10:04,VALID,1002.78,VALID,0,VALID,94.4684,VALID,0,VALID,24.5174,VALID,54,VALID,0,
2009-07-14, 02:11:04,VALID,1002.78,VALID,0,VALID,94.4761,VALID,0.100563,VALID,24.5193,VALID,54,VALID,0,
2009-07-14, 02:12:04,VALID,1002.75,VALID,0,VALID,94.4684,VALID,0,VALID,24.5425,VALID,54,VALID,0,
2009-07-14, 02:13:04,VALID,1002.76,VALID,0,VALID,94.4608,VALID,0,VALID,24.5212,VALID,54,VALID,0,
2009-07-14, 02:14:04,VALID,1002.74,VALID,0,VALID,94.4532,VALID,0,VALID,24.5017,VALID,54,VALID,0,
2009-07-14, 02:15:04,VALID,1002.71,VALID,0,VALID,94.4379,VALID,0,VALID,24.4822,VALID,54,VALID,0,
2009-07-14, 02:16:04,VALID,1002.75,VALID,0,VALID,94.4608,VALID,0,VALID,24.523,VALID,54,VALID,0,
2009-07-14, 02:17:04,VALID,1002.76,VALID,0,VALID,94.4837,VALID,0,VALID,24.5212,VALID,54,VALID,0,
2009-07-14, 02:18:04,VALID,1002.72,VALID,0,VALID,94.4684,VALID,0,VALID,24.5406,VALID,54,VALID,0.0410156,
2009-07-14, 02:19:04,VALID,1002.72,VALID,0,VALID,94.5066,VALID,0,VALID,24.5601,VALID,54,VALID,0,
2009-07-14, 02:20:04,VALID,1002.69,VALID,0,VALID,94.5371,VALID,0,VALID,24.562,VALID,54,VALID,0,
2009-07-14, 02:21:04,VALID,1002.68,VALID,0,VALID,94.5523,VALID,0,VALID,24.6009,VALID,54,VALID,0,
2009-07-14, 02:22:04,VALID,1002.68,VALID,0,VALID,94.5447,VALID,0,VALID,24.6009,VALID,54,VALID,0,
2009-07-14, 02:23:04,VALID,1002.64,VALID,0,VALID,94.5676,VALID,0,VALID,24.5796,VALID,54,VALID,0.265625,
2009-07-14, 02:24:04,VALID,1002.64,VALID,0,VALID,94.5447,VALID,0,VALID,24.5796,VALID,54,VALID,0,
2009-07-14, 02:25:04,VALID,1002.66,VALID,0,VALID,94.56,VALID,0,VALID,24.6204,VALID,54,VALID,0,
2009-07-14, 02:26:04,VALID,1002.63,VALID,0,VALID,94.5752,VALID,0,VALID,24.6009,VALID,54,VALID,0,
2009-07-14, 02:27:04,VALID,1002.64,VALID,0,VALID,94.5752,VALID,0,VALID,24.599,VALID,54,VALID,0,
2009-07-14, 02:28:04,VALID,1002.68,VALID,0,VALID,94.56,VALID,0,VALID,24.5777,VALID,54,VALID,0,
2009-07-14, 02:29:04,VALID,1002.66,VALID,0,VALID,94.5905,VALID,0,VALID,24.6185,VALID,54,VALID,0,
2009-07-14, 02:30:04,VALID,1002.67,VALID,0,VALID,94.5829,VALID,0,VALID,24.5972,VALID,54,VALID,0,
2009-07-14, 02:31:04,VALID,1002.68,VALID,0,VALID,94.5752,VALID,0.100563,VALID,24.638,VALID,54,VALID,0,
2009-07-14, 02:32:04,VALID,1002.67,VALID,0,VALID,94.5981,VALID,0,VALID,24.638,VALID,54,VALID,0,
2009-07-14, 02:33:04,VALID,1002.66,VALID,0,VALID,94.5981,VALID,0.100563,VALID,24.6166,VALID,52,VALID,0,
2009-07-14, 02:34:04,VALID,1002.67,VALID,0,VALID,94.6134,VALID,0,VALID,24.638,VALID,51,VALID,0,
2009-07-14, 02:35:04,VALID,1002.68,VALID,0,VALID,94.5905,VALID,0,VALID,24.6166,VALID,51,VALID,0,
2009-07-14, 02:36:04,VALID,1002.68,VALID,0,VALID,94.5829,VALID,0,VALID,24.638,VALID,51,VALID,0,
2009-07-14, 02:37:04,VALID,1002.67,VALID,0,VALID,94.5829,VALID,0.100563,VALID,24.6574,VALID,51,VALID,0,
2009-07-14, 02:38:04,VALID,1002.65,VALID,0,VALID,94.5905,VALID,0,VALID,24.6361,VALID,51,VALID,0,
2009-07-14, 02:39:04,VALID,1002.65,VALID,0,VALID,94.5905,VALID,0,VALID,24.6556,VALID,51,VALID,0.361328,
2009-07-14, 02:40:04,VALID,1002.66,VALID,0,VALID,94.5829,VALID,0,VALID,24.6556,VALID,51,VALID,0,
2009-07-14, 02:41:04,VALID,1002.66,VALID,0,VALID,94.5905,VALID,0,VALID,24.6556,VALID,51,VALID,0.254297,
2009-07-14, 02:42:04,VALID,1002.64,VALID,0,VALID,94.6057,VALID,0,VALID,24.6342,VALID,51,VALID,0.246094,
2009-07-14, 02:43:04,VALID,1002.63,VALID,0,VALID,94.5981,VALID,0,VALID,24.6556,VALID,51,VALID,0.159766,
2009-07-14, 02:44:04,VALID,1002.61,VALID,0,VALID,94.6057,VALID,0,VALID,24.6964,VALID,51,VALID,0.195703,
2009-07-14, 02:45:04,VALID,1002.59,VALID,0,VALID,94.621,VALID,0,VALID,24.675,VALID,51,VALID,0.260547,
2009-07-14, 02:46:04,VALID,1002.57,VALID,0,VALID,94.6057,VALID,0.100563,VALID,24.714,VALID,51,VALID,0.266406,
2009-07-14, 02:47:04,VALID,1002.55,VALID,0,VALID,94.621,VALID,0,VALID,24.714,VALID,51,VALID,0.337109,
2009-07-14, 02:48:04,VALID,1002.56,VALID,0,VALID,94.621,VALID,0,VALID,24.6945,VALID,51,VALID,0.339453,
2009-07-14, 02:49:04,VALID,1002.53,VALID,0,VALID,94.621,VALID,0,VALID,24.6945,VALID,51,VALID,0.328125,
2009-07-14, 02:50:04,VALID,1002.56,VALID,0,VALID,94.6134,VALID,0,VALID,24.6945,VALID,51,VALID,0.246484,
2009-07-14, 02:51:04,VALID,1002.55,VALID,0,VALID,94.5981,VALID,0,VALID,24.6945,VALID,51,VALID,0.295312,
2009-07-14, 02:52:04,VALID,1002.55,VALID,0,VALID,94.6286,VALID,0.100563,VALID,24.675,VALID,51,VALID,0.318359,
2009-07-14, 02:53:04,VALID,1002.53,VALID,0,VALID,94.6057,VALID,0,VALID,24.6945,VALID,51,VALID,0.239453,
2009-07-14, 02:54:04,VALID,1002.53,VALID,0,VALID,94.621,VALID,0.100563,VALID,24.6945,VALID,51,VALID,0.20625,
2009-07-14, 02:55:04,VALID,1002.5,VALID,0,VALID,94.6134,VALID,0,VALID,24.6945,VALID,51,VALID,0.261328,
2009-07-14, 02:56:04,VALID,1002.48,VALID,0,VALID,94.6134,VALID,0,VALID,24.675,VALID,51,VALID,0.317578,
2009-07-14, 02:57:05,VALID,1002.47,VALID,0,VALID,94.5981,VALID,0,VALID,24.675,VALID,51,VALID,0.367188,
2009-07-14, 02:58:05,VALID,1002.47,VALID,0,VALID,94.6134,VALID,0.100563,VALID,24.675,VALID,51,VALID,0.315234,
2009-07-14, 02:59:05,VALID,1002.47,VALID,0,VALID,94.6363,VALID,0,VALID,24.675,VALID,51,VALID,0.341406,
2009-07-14, 03:00:05,VALID,1002.46,VALID,0,VALID,94.621,VALID,0,VALID,24.6556,VALID,51,VALID,0.323438,
2009-07-14, 03:01:05,VALID,1002.46,VALID,0,VALID,94.6439,VALID,0,VALID,24.6556,VALID,51,VALID,0.241797,
2009-07-14, 03:02:05,VALID,1002.45,VALID,0,VALID,94.6363,VALID,0,VALID,24.6361,VALID,51,VALID,0.187891,
2009-07-14, 03:03:05,VALID,1002.43,VALID,0,VALID,94.6286,VALID,0,VALID,24.6574,VALID,51,VALID,0.244141,
2009-07-14, 03:04:05,VALID,1002.48,VALID,0,VALID,94.6439,VALID,0.100563,VALID,24.6361,VALID,51,VALID,0.0542969,
2009-07-14, 03:05:05,VALID,1002.45,VALID,0,VALID,94.6515,VALID,0,VALID,24.6361,VALID,51,VALID,0,
2009-07-14, 03:06:05,VALID,1002.43,VALID,0,VALID,94.6591,VALID,0,VALID,24.5953,VALID,51,VALID,0,
2009-07-14, 03:07:05,VALID,1002.41,VALID,0,VALID,94.6668,VALID,0,VALID,24.6166,VALID,51,VALID,0,
2009-07-14, 03:08:05,VALID,1002.41,VALID,0,VALID,94.6744,VALID,0,VALID,24.5953,VALID,51,VALID,0,
2009-07-14, 03:09:05,VALID,1002.4,VALID,0,VALID,94.6668,VALID,0,VALID,24.6166,VALID,51,VALID,0,
2009-07-14, 03:10:05,VALID,1002.34,VALID,0,VALID,94.6668,VALID,0,VALID,24.5972,VALID,51,VALID,0,
2009-07-14, 03:11:05,VALID,1002.35,VALID,0,VALID,94.6744,VALID,0,VALID,24.6166,VALID,51,VALID,0,
2009-07-14, 03:12:05,VALID,1002.36,VALID,0,VALID,94.682,VALID,0,VALID,24.599,VALID,51,VALID,0,
2009-07-14, 03:13:05,VALID,1002.32,VALID,0,VALID,94.7125,VALID,0,VALID,24.6185,VALID,51,VALID,0.107813,
2009-07-14, 03:14:05,VALID,1002.34,VALID,0,VALID,94.6973,VALID,0,VALID,24.599,VALID,51,VALID,0,
2009-07-14, 03:15:05,VALID,1002.35,VALID,0,VALID,94.6897,VALID,0,VALID,24.5796,VALID,51,VALID,0.003125,
2009-07-14, 03:16:05,VALID,1002.34,VALID,0,VALID,94.6973,VALID,0,VALID,24.5796,VALID,51,VALID,0.210156,
2009-07-14, 03:17:05,VALID,1002.36,VALID,0,VALID,94.6973,VALID,0,VALID,24.5796,VALID,51,VALID,0.028125,
2009-07-14, 03:18:05,VALID,1002.35,VALID,0,VALID,94.7125,VALID,0,VALID,24.5796,VALID,51,VALID,0,
2009-07-14, 03:19:05,VALID,1002.36,VALID,0,VALID,94.7278,VALID,0,VALID,24.5582,VALID,51,VALID,0,
2009-07-14, 03:20:05,VALID,1002.34,VALID,0,VALID,94.7202,VALID,0,VALID,24.6009,VALID,51,VALID,0,
2009-07-14, 03:21:05,VALID,1002.36,VALID,0,VALID,94.7202,VALID,0,VALID,24.5796,VALID,51,VALID,0,
2009-07-14, 03:22:05,VALID,1002.33,VALID,0,VALID,94.7202,VALID,0,VALID,24.5601,VALID,51,VALID,0,
2009-07-14, 03:23:05,VALID,1002.3,VALID,0,VALID,94.7202,VALID,0,VALID,24.5406,VALID,51,VALID,0,
2009-07-14, 03:24:05,VALID,1002.32,VALID,0,VALID,94.6973,VALID,0,VALID,24.5017,VALID,51,VALID,0,
2009-07-14, 03:25:05,VALID,1002.33,VALID,0,VALID,94.7202,VALID,0,VALID,24.5017,VALID,44,VALID,0.189063,
2009-07-14, 03:26:05,VALID,1002.37,VALID,0,VALID,94.6973,VALID,0,VALID,24.5017,VALID,44,VALID,0.275391,
2009-07-14, 03:27:05,VALID,1002.34,VALID,0,VALID,94.7049,VALID,0,VALID,24.4822,VALID,44,VALID,0.348047,
2009-07-14, 03:28:05,VALID,1002.37,VALID,0,VALID,94.7049,VALID,0,VALID,24.5017,VALID,44,VALID,0.332031,
2009-07-14, 03:29:05,VALID,1002.35,VALID,0,VALID,94.7202,VALID,0,VALID,24.4822,VALID,44,VALID,0.178125,
2009-07-14, 03:30:05,VALID,1002.38,VALID,0,VALID,94.7354,VALID,0,VALID,24.4822,VALID,44,VALID,0.153516,
2009-07-14, 03:31:05,VALID,1002.39,VALID,0,VALID,94.7278,VALID,0,VALID,24.4609,VALID,44,VALID,0.150391,
2009-07-14, 03:32:05,VALID,1002.4,VALID,0,VALID,94.7507,VALID,0,VALID,24.4628,VALID,44,VALID,0.249219,
2009-07-14, 03:33:05,VALID,1002.41,VALID,0,VALID,94.7583,VALID,0,VALID,24.4628,VALID,44,VALID,0.335156,
2009-07-14, 03:34:05,VALID,1002.43,VALID,0,VALID,94.7507,VALID,0,VALID,24.4628,VALID,44,VALID,0.196875,
2009-07-14, 03:35:05,VALID,1002.42,VALID,0,VALID,94.7507,VALID,0,VALID,24.4628,VALID,44,VALID,0.273828,
2009-07-14, 03:36:05,VALID,1002.42,VALID,0,VALID,94.7812,VALID,0,VALID,24.4433,VALID,44,VALID,0.124609,
2009-07-14, 03:37:05,VALID,1002.45,VALID,0,VALID,94.7736,VALID,0,VALID,24.422,VALID,44,VALID,0,
2009-07-14, 03:38:05,VALID,1002.44,VALID,0,VALID,94.7812,VALID,0,VALID,24.4433,VALID,51,VALID,0.469141,
2009-07-14, 03:39:05,VALID,1002.46,VALID,0,VALID,94.7888,VALID,0,VALID,24.4628,VALID,54,VALID,0.250781,
2009-07-14, 03:40:05,VALID,1002.44,VALID,0,VALID,94.7965,VALID,0,VALID,24.4628,VALID,54,VALID,0.112109,
2009-07-14, 03:41:05,VALID,1002.42,VALID,0,VALID,94.8041,VALID,0,VALID,24.5035,VALID,54,VALID,0.170703,
2009-07-14, 03:42:05,VALID,1002.44,VALID,0,VALID,94.8194,VALID,0,VALID,24.5212,VALID,54,VALID,0.289844,
2009-07-14, 03:43:05,VALID,1002.4,VALID,0,VALID,94.8499,VALID,0,VALID,24.4785,VALID,54,VALID,0.215625,
2009-07-14, 03:44:05,VALID,1002.38,VALID,0,VALID,94.8499,VALID,0.100563,VALID,24.5174,VALID,54,VALID,0.326562,
2009-07-14, 03:45:05,VALID,1002.39,VALID,0,VALID,94.8499,VALID,0,VALID,24.5193,VALID,54,VALID,0.225,
2009-07-14, 03:46:05,VALID,1002.37,VALID,0,VALID,94.8499,VALID,0,VALID,24.5193,VALID,54,VALID,0.0117188,
2009-07-14, 03:47:05,VALID,1002.37,VALID,0,VALID,94.827,VALID,0.100563,VALID,24.4998,VALID,54,VALID,0,
2009-07-14, 03:48:05,VALID,1002.39,VALID,0,VALID,94.8346,VALID,0.100563,VALID,24.4998,VALID,54,VALID,0,
2009-07-14, 03:49:05,VALID,1002.38,VALID,0,VALID,94.827,VALID,0.100563,VALID,24.4804,VALID,54,VALID,0,
2009-07-14, 03:50:05,VALID,1002.4,VALID,0,VALID,94.8194,VALID,0,VALID,24.4609,VALID,54,VALID,0,
2009-07-14, 03:51:05,VALID,1002.38,VALID,0,VALID,94.7965,VALID,0.100563,VALID,24.459,VALID,54,VALID,0,